Location: Mahannah Oil Field
(37.4664°N, 96.6003°W)
Time: 02:16:03
(UTC+00:00)

deb Explorer IX - Pass Details

Date: 27 January 2021
Orbit: 537 x 1102 km, 38.8° (Epoch: 01 March)

Event Time Altitude Azimuth Distance (km) Brightness Sun altitude
Rises 05:25:56 0° 275° (W) 3,176 - -65.1°
Reaches altitude 10° 05:29:50 10° 247° (WSW) 2,111 - -65.6°
Maximum altitude 05:31:56 13° 222° (SW) 1,862 - -65.9°
Drops below altitude 10° 05:33:56 10° 195° (SSW) 1,975 - -66.2°
Sets 05:37:20 0° 166° (SSE) 2,781 - -66.6°
